Regional Weather Roundup
Issued by NWS

Home | Current Version | Previous Version | Graphics & Text | Print | Product List | Glossary On
Versions: 1 2 3 4 5 6 7 8 9 10 11 12 13 14 15 16 17 18 19 20 21 22 23 24 25 26 27 28 29 30 31 32 33 34 35 36 37 38 39 40 41 42 43 44 45 46 47 48 49 50
603
ASUS45 KBOU 242207
RWRCO

WEATHER ROUNDUP FOR COLORADO
NATIONAL WEATHER SERVICE DENVER/BOULDER CO
300 PM MST FRI FEB 24 2017

NOTE: "FAIR" INDICATES FEW OR NO CLOUDS BELOW 12000 FEET WITH NO
SIGNIFICANT WEATHER AND/OR OBSTRUCTIONS TO VISIBILITY.

COZ001>005-013-030-031-242300-
...NORTHWEST COLORADO...

CITY           SKY/WX    TMP DP  RH WIND       PRES   REMARKS
CRAIG          CLOUDY    25  13  60 VRB7G17   29.96R WCI  17
HAYDEN         CLOUDY    21   9  58 W13       29.93R WCI   9
MEEKER         PTSUNNY   27   9  46 N6        29.92R WCI  20
MOUNT WERNER   NOT AVBL
STEAMBOAT SPGS CLOUDY    22   9  56 SW12      29.90S WCI  11
WALDEN         NOT AVBL
$$

COZ006>008-011-242300-
...WEST CENTRAL VALLEYS...

CITY           SKY/WX    TMP DP  RH WIND       PRES   REMARKS
GRAND JUNCTION PTSUNNY   32  19  58 N14       29.97R WCI  22
MONTROSE       CLOUDY    26  20  77 S10       29.99R WCI  16
EAGLE          CLOUDY    30   9  40 W18       29.88  WCI  18
RIFLE          PTSUNNY   31  13  47 NW10      29.93S WCI  22
DELTA          FAIR      36  10  35 W21G26    29.95R
NUCLA          CLOUDY    32   9  37 NW10G21   30.00R WCI  24
$$

COZ017>023-064>068-242300-
...SOUTHWEST COLORADO...

CITY           SKY/WX    TMP DP  RH WIND       PRES   REMARKS
DURANGO        PTSUNNY   30   9  41 W14G26    29.92S WCI  19
CORTEZ         CLOUDY    32  16  51 VRB3      29.96S
PAGOSA SPRINGS CLOUDY    29   4  35 SW12G18   29.88R WCI  19
TELLURIDE      CLOUDY    18   6  58 NW5       29.87S WCI  11
WOLF CREEK PAS SNOW       3   1  92 S18G26    29.79R VSB 1/4 WCI -17
$$

COZ009-010-012-014-032>034-037-058>063-242300-
...CENTRAL COLORADO...

CITY           SKY/WX    TMP DP  RH WIND       PRES   REMARKS
ASPEN          LGT SNOW  20  10  65 NW13G21   29.83R WCI   7
BUENA VISTA    CLOUDY    26  -7  23 W17       29.80R WCI  13
COPPER MTN     CLOUDY     7  -4  61 MISG      29.69R HAZE
BERTHOUD PASS  CLOUDY    -2 -13  60 N20G31    29.65R WCI -25
COTTONWOOD PAS LGT SNOW  18   0  45 W10G20    29.77R WCI   6
GUNNISON       FLURRIES  21  12  68 E3        29.86R
KREMMLING      PTSUNNY   27   9  46 N10G22    29.86R WCI  17
LEADVILLE      PTSUNNY   12  -3  51 W9        29.74S WCI   0
MONARCH PASS   PTSUNNY    5   0  78 W28G33    29.81R WCI -18
SALIDA         PTSUNNY   32  -3  22 SW20G25   29.89R WCI  20
SUNLIGHT       NOT AVBL
WILKERSON PASS CLOUDY    10 -17  28 W5        29.74R WCI   2
$$

COZ069>075-242300-
...SAN LUIS VALLEY/SANGRE DE CRISTO MOUNTAINS...

CITY           SKY/WX    TMP DP  RH WIND       PRES   REMARKS
ALAMOSA        CLOUDY    27   6  41 SW16G23   29.82S WCI  15
LA VETA PASS   LGT SNOW  16   9  73 SW8G21    29.78R VSB 3/4 WCI   5
SAGUACHE       PTSUNNY   28   3  34 NW17G25   29.83R WCI  16
$$

COZ035-036-038>040-242300-
...NORTHERN COLORADO FRONT RANGE...

CITY           SKY/WX    TMP DP  RH WIND       PRES   REMARKS
DENVER INTL AP CLOUDY    23  13  65 NE5       29.94R WCI  17
DMNS CITY PARK   N/A     25  11  55 N3        29.96R
AURORA         PTSUNNY   24  12  60 CALM      29.94R
FRONT RANGE AP CLOUDY    27  16  63 N5        29.95R WCI  21
ERIE MUNI ARPT CLOUDY    26  16  64 NE6       29.96S WCI  19
BOULDER MUN AP LGT SNOW  25  16  68 CALM      29.95R
CENTENNIAL     CLOUDY    22  11  62 CALM      29.92R
BROOMFIELD     CLOUDY    25  16  68 E5        29.94R WCI  19
FORT COLLINS   FLURRIES  25  18  74 SE7       29.98R WCI  17
LONGMONT       FLURRIES  29  15  55 CALM      29.99R
$$

COZ041-046-047-076>085-087-088-242300-
...PIKES PEAK/PALMER DIVIDE AND SOUTHERN FOOTHILLS...

CITY           SKY/WX    TMP DP  RH WIND       PRES   REMARKS
COLO. SPRINGS  LGT SNOW  26  11  52 NE3       29.91R
A. F. ACADEMY  FLURRIES  22  10  60 N3        29.87S
SCHRIEVER AFB  FLURRIES  25   9  50 NE6       29.91  WCI  18
ELLICOTT       FAIR     N/A N/A N/A CALM      29.90R
FALCON         PTSUNNY   22   9  56 NE5       29.89R WCI  16
FORT CARSON    LGT SNOW  27  12  51 NE6       29.90R WCI  21
LIMON          CLOUDY    23  15  71 N9        29.95R WCI  13
MONUMENT HILL  CLOUDY    18  10  73 CALM      29.89R
TRINIDAD       CLOUDY    32   9  38 SE3       29.89R
$$

COZ042>045-048>051-090-091-242300-
...NORTHEAST COLORADO...

CITY           SKY/WX    TMP DP  RH WIND       PRES   REMARKS
GREELEY ARPT   CLOUDY    25  18  74 E5        30.00S WCI  19
AKRON          CLOUDY    23  16  74 NE7       29.98R WCI  15
BURLINGTON     CLOUDY    28  18  66 N13       29.99R WCI  17
WRAY           NOT AVBL
STERLING       FAIR      27  19  74 CALM      30.02R
HOLYOKE        FAIR      30  21  69 N9        30.03S WCI  22
FORT MORGAN    CLOUDY    26  17  67 CALM      30.00S
$$

COZ086-089-092>099-242300-
...SOUTHEAST COLORADO...

CITY           SKY/WX    TMP DP  RH WIND       PRES   REMARKS
PUEBLO         FAIR      35   9  33 E7        29.93R WCI  29
LA JUNTA       FAIR      37  11  34 N9G22     29.96R
LAMAR          FAIR      38  12  34 N14G20    29.97R
SPRINGFIELD      N/A     38  12  34 N15G21    29.94R
$$




USA.gov is the U.S. government's official web portal to all federal, state and local government web resources and services.